FW6908 Weather Reports


time (UTC)temp
F
wind
direction
speed
knots
gust
knots
rain 1hr
in
rain 24hr
in
rain mn
in
humidity
%
barometer
mb
20260507060525 68 233 1.7 3.5 0.00 0.00 0.00 53 1019.0
20260507060024 68 269 1.7 3.5 0.00 0.00 0.00 53 1018.8
20260507055523 68 283 0.9 3.5 0.00 0.00 0.00 53 1018.8
20260507055021 67 28 0.9 4.3 0.00 0.00 0.00 54 1018.7
20260507054519 66 11 1.7 5.2 0.00 0.00 0.00 57 1018.7
20260507054022 66 355 2.6 5.2 0.00 0.00 0.00 58 1018.6
20260507053516 65 355 2.6 4.3 0.00 0.00 0.00 58 1018.5
20260507053016 65 355 0.9 4.3 0.00 0.00 0.00 59 1018.5
20260507052514 65 360 0.9 4.3 0.00 0.00 0.00 60 1018.5
20260507052012 64 13 1.7 3.5 0.00 0.00 0.00 60 1018.4
20260507051511 64 11 1.7 4.3 0.00 0.00 0.00 60 1018.4
20260507051010 63 58 0.9 5.2 0.00 0.00 0.00 61 1018.4
20260507050508 62 30 0.9 5.2 0.00 0.00 0.00 62 1018.4
20260507050024 62 73 2.6 5.2 0.00 0.00 0.00 62 1018.4
20260507045507 61 56 2.6 5.2 0.00 0.00 0.00 64 1018.4
20260507045005 60 17 2.6 4.3 0.00 0.00 0.00 65 1018.5
20260507044503 59 15 1.7 3.5 0.00 0.00 0.00 67 1018.5
20260507044002 58 40 1.7 3.5 0.00 0.00 0.00 68 1018.5
20260507043500 58 24 1.7 4.3 0.00 0.00 0.00 68 1018.4
20260507043100 58 23 1.7 3.5 0.00 0.00 0.00 68 1018.4
20260507042603 58 355 0.0 3.5 0.00 0.00 0.00 67 1018.4
20260507042057 58 57 0.9 5.2 0.00 0.00 0.00 68 1018.4
20260507041603 57 53 2.6 5.2 0.00 0.00 0.00 70 1018.5
20260507041101 56 49 2.6 5.2 0.00 0.00 0.00 71 1018.5
20260507040552 56 29 2.6 4.3 0.00 0.00 0.00 71 1018.5
20260507040052 56 37 2.6 4.3 0.00 0.00 0.00 70 1018.6
20260507035551 56 41 0.9 3.5 0.00 0.00 0.00 70 1018.5
20260507035048 57 38 0.0 4.3 0.00 0.00 0.00 69 1018.5
20260507034546 57 73 0.9 4.3 0.00 0.00 0.00 70 1018.5
20260507034045 56 49 2.6 4.3 0.00 0.00 0.00 71 1018.5
20260507033544 55 50 2.6 5.2 0.00 0.00 0.00 72 1018.4
20260507033044 55 59 2.6 5.2 0.00 0.00 0.00 73 1018.4
20260507032543 55 27 2.6 4.3 0.00 0.00 0.00 72 1018.4
20260507032043 56 36 1.7 3.5 0.00 0.00 0.00 70 1018.3
20260507031543 57 71 1.7 3.5 0.00 0.00 0.00 71 1018.3
20260507031041 56 62 1.7 3.5 0.00 0.00 0.00 72 1018.3
20260507030542 56 68 0.9 2.6 0.00 0.00 0.00 71 1018.3
20260507030041 56 63 0.9 2.6 0.00 0.00 0.00 71 1018.3
20260507025540 56 59 1.7 2.6 0.00 0.00 0.00 72 1018.2
20260507025041 55 44 0.9 4.3 0.00 0.00 0.00 72 1018.2
20260507024540 55 37 1.7 4.3 0.00 0.00 0.00 73 1018.3
20260507024040 55 40 2.6 4.3 0.00 0.00 0.00 72 1018.3
20260507023539 55 31 1.7 3.5 0.00 0.00 0.00 72 1018.3
20260507023039 55 57 1.7 3.5 0.00 0.00 0.00 71 1018.3
20260507022539 56 44 1.7 3.5 0.00 0.00 0.00 71 1018.2
20260507022039 56 53 1.7 3.5 0.00 0.00 0.00 70 1018.3
20260507021539 56 73 0.9 2.6 0.00 0.00 0.00 69 1018.3
20260507021038 56 77 0.9 2.6 0.00 0.00 0.00 69 1018.2
20260507020538 57 94 0.0 3.5 0.00 0.00 0.00 68 1018.2
20260507020045 57 94 0.9 5.2 0.00 0.00 0.00 68 1018.1
20260507015537 56 102 1.7 5.2 0.00 0.00 0.00 68 1018.1
20260507015037 56 83 3.5 5.2 0.00 0.00 0.00 69 1018.1
20260507014542 56 86 2.6 5.2 0.00 0.00 0.00 69 1018.1
20260507014037 55 73 3.5 6.1 0.00 0.00 0.00 70 1018.2
20260507013536 55 63 4.3 6.1 0.00 0.00 0.00 70 1018.0
20260507013043 55 40 3.5 5.2 0.00 0.00 0.00 71 1017.9
20260507012535 55 17 2.6 7.0 0.00 0.00 0.00 71 1017.9
20260507012034 55 34 2.6 7.8 0.00 0.00 0.00 71 1017.8
20260507011541 55 38 4.3 7.8 0.00 0.00 0.00 71 1017.5
20260507011033 55 46 4.3 7.0 0.00 0.00 0.00 71 1017.4
20260507010532 55 24 3.5 5.2 0.00 0.00 0.00 70 1017.3
20260507010041 55 32 4.3 7.0 0.00 0.00 0.00 70 1017.4
20260507005533 55 38 3.5 7.0 0.00 0.00 0.00 70 1017.3
20260507005031 55 29 2.6 5.2 0.00 0.00 0.00 70 1017.5
20260507004530 55 46 3.5 5.2 0.00 0.00 0.00 70 1017.4
20260507004030 55 44 3.5 5.2 0.00 0.00 0.00 71 1017.4
20260507003530 55 30 3.5 5.2 0.00 0.00 0.00 70 1017.3
20260507003029 56 28 3.5 5.2 0.00 0.00 0.00 69 1017.3
20260507002528 56 49 2.6 5.2 0.00 0.00 0.00 69 1017.3
20260507002027 56 42 2.6 6.1 0.00 0.00 0.00 69 1017.3
20260507001537 56 49 3.5 7.8 0.00 0.00 0.00 70 1017.4
20260507001026 56 46 5.2 7.8 0.00 0.00 0.00 70 1017.5
20260507000525 56 34 4.3 7.8 0.00 0.00 0.00 70 1017.5
20260507000031 56 34 3.5 5.2 0.00 0.00 0.00 69 1017.6
20260506235523 56 44 2.6 6.1 0.00 0.00 0.00 69 1017.6
20260506235023 56 40 4.3 5.2 0.00 0.00 0.00 69 1017.7
20260506234522 56 40 3.5 6.1 0.00 0.00 0.00 69 1017.8
20260506234022 56 36 4.3 6.1 0.00 0.00 0.00 69 1017.9
20260506233520 56 38 2.6 5.2 0.00 0.00 0.00 69 1018.0
20260506233019 56 32 3.5 5.2 0.00 0.00 0.00 68 1018.0
20260506232517 57 22 2.6 3.5 0.00 0.00 0.00 67 1018.1
20260506232017 57 39 1.7 5.2 0.00 0.00 0.00 66 1018.1
20260506231519 57 54 2.6 5.2 0.00 0.00 0.00 67 1018.0
20260506231016 57 41 3.5 5.2 0.00 0.00 0.00 67 1018.1
20260506230516 57 25 2.6 4.3 0.00 0.00 0.00 67 1018.2
20260506230016 57 35 2.6 4.3 0.00 0.00 0.00 68 1018.2
20260506225516 57 30 2.6 4.3 0.00 0.00 0.00 68 1018.2
20260506225013 57 30 2.6 4.3 0.00 0.00 0.00 67 1018.2
20260506224514 58 38 2.6 3.5 0.00 0.00 0.00 65 1018.3
20260506224009 59 74 1.7 3.5 0.00 0.00 0.00 63 1018.2
20260506223509 60 76 1.7 3.5 0.00 0.00 0.00 62 1018.3
20260506223009 61 76 0.9 3.5 0.00 0.00 0.00 61 1018.3
20260506222509 60 78 1.7 3.5 0.00 0.00 0.00 62 1018.3
20260506222009 60 70 1.7 5.2 0.00 0.00 0.00 62 1018.3
20260506221508 59 53 3.5 5.2 0.00 0.00 0.00 63 1018.4
20260506221008 59 38 2.6 4.3 0.00 0.00 0.00 64 1018.4
20260506220507 59 46 2.6 4.3 0.00 0.00 0.00 65 1018.4
20260506220007 59 32 2.6 4.3 0.00 0.00 0.00 65 1018.3
20260506215507 59 53 2.6 4.3 0.00 0.00 0.00 65 1018.3
20260506215006 59 38 2.6 6.1 0.00 0.00 0.00 65 1018.4
20260506214505 59 46 3.5 4.3 0.00 0.00 0.00 65 1018.3
20260506214005 59 43 2.6 4.3 0.00 0.00 0.00 65 1018.3
20260506213507 59 35 2.6 5.2 0.00 0.00 0.00 66 1018.3
20260506213003 59 30 2.6 4.3 0.00 0.00 0.00 65 1018.4
20260506212502 60 17 2.6 3.5 0.00 0.00 0.00 64 1018.5
20260506212101 61 28 0.9 2.6 0.00 0.00 0.00 63 1018.5
20260506211559 61 59 0.0 0.0 0.00 0.00 0.00 62 1018.5
20260506211104 62 56 0.0 1.7 0.00 0.00 0.00 62 1018.5
20260506210559 62 54 0.0 1.7 0.00 0.00 0.00 62 1018.5
20260506210057 61 48 0.0 1.7 0.00 0.00 0.00 62 1018.5
20260506205557 62 51 0.0 1.7 0.00 0.00 0.00 61 1018.6
20260506205057 63 53 0.0 1.7 0.00 0.00 0.00 59 1018.6
20260506204557 63 46 0.0 0.0 0.00 0.00 0.00 59 1018.6
20260506204056 62 34 0.0 0.0 0.00 0.00 0.00 59 1018.7
20260506203556 62 33 0.0 0.0 0.00 0.00 0.00 60 1018.7
20260506203056 62 34 0.0 0.0 0.00 0.00 0.00 60 1018.7
20260506202555 62 32 0.0 0.0 0.00 0.00 0.00 60 1018.7
20260506202056 63 30 0.0 0.0 0.00 0.00 0.00 59 1018.7
20260506201555 64 26 0.0 0.0 0.00 0.00 0.00 57 1018.7
20260506201054 65 26 0.0 0.9 0.00 0.00 0.00 55 1018.6
20260506200554 65 26 0.0 0.9 0.00 0.00 0.00 53 1018.5
20260506200054 65 24 0.0 2.6 0.00 0.00 0.00 53 1018.5
20260506195553 65 24 0.9 2.6 0.00 0.00 0.00 51 1018.5
20260506195053 65 28 0.9 2.6 0.00 0.00 0.00 53 1018.5
20260506194552 65 28 0.0 2.6 0.00 0.00 0.00 53 1018.4
20260506194050 65 20 0.9 3.5 0.00 0.00 0.00 52 1018.4
20260506193551 65 22 0.9 3.5 0.00 0.00 0.00 53 1018.3
20260506193055 65 24 0.9 2.6 0.00 0.00 0.00 52 1018.3
20260506192549 66 28 0.9 2.6 0.00 0.00 0.00 52 1018.2
20260506192049 67 20 0.0 1.7 0.00 0.00 0.00 50 1018.1
20260506191553 67 19 0.0 1.7 0.00 0.00 0.00 49 1018.1
20260506191053 68 12 0.0 1.7 0.00 0.00 0.00 47 1018.1
20260506190548 68 17 0.0 2.6 0.00 0.00 0.00 46 1017.9
20260506190050 68 18 0.9 2.6 0.00 0.00 0.00 46 1018.0
20260506185548 68 25 0.9 3.5 0.00 0.00 0.00 46 1017.9
20260506185048 68 360 0.9 3.5 0.00 0.00 0.00 45 1018.0
20260506184548 68 350 1.7 3.5 0.00 0.00 0.00 45 1017.9
20260506184048 68 350 0.9 2.6 0.00 0.00 0.00 45 1017.8
20260506183548 68 322 0.0 2.6 0.00 0.00 0.00 45 1017.8
20260506183051 69 337 0.0 2.6 0.00 0.00 0.00 45 1017.7
20260506182548 68 342 1.7 2.6 0.00 0.00 0.00 45 1017.6
20260506182048 68 335 0.9 3.5 0.00 0.00 0.00 46 1017.5
20260506181600 69 336 0.9 3.5 0.00 0.00 0.00 46 1017.5
20260506181046 69 334 0.9 3.5 0.00 0.00 0.00 46 1017.5
20260506180550 69 323 1.7 3.5 0.00 0.00 0.00 46 1017.5
20260506180048 69 336 1.7 3.5 0.00 0.00 0.00 46 1017.5
20260506175546 69 346 1.7 4.3 0.00 0.00 0.00 46 1017.5
20260506175046 69 346 1.7 4.3 0.00 0.00 0.00 46 1017.5
20260506174644 69 323 2.6 6.1 0.00 0.00 0.00 46 1017.5
20260506174044 69 317 1.7 4.3 0.00 0.00 0.00 46 1017.4
20260506173544 69 280 1.7 4.3 0.00 0.00 0.00 46 1017.3
20260506173111 69 280 2.6 7.0 0.00 0.00 0.00 46 1017.3
20260506172543 70 262 3.5 7.0 0.00 0.00 0.00 46 1017.3
20260506172043 70 288 1.7 5.2 0.00 0.00 0.00 46 1017.4
20260506171545 70 273 3.5 5.2 0.00 0.00 0.00 45 1017.4
20260506171043 70 298 2.6 7.8 0.00 0.00 0.00 45 1017.3
20260506170543 70 271 5.2 7.8 0.00 0.00 0.00 44 1017.3
20260506165543 71 282 3.5 7.0 0.00 0.00 0.00 44 1017.3
20260506165043 71 259 3.5 7.8 0.00 0.00 0.00 44 1017.2
20260506164542 71 274 4.3 7.8 0.00 0.00 0.00 43 1017.2
20260506164043 71 246 2.6 8.7 0.00 0.00 0.00 43 1017.3
20260506163543 71 273 6.1 8.7 0.00 0.00 0.00 42 1017.3
20260506163052 71 251 5.2 9.6 0.00 0.00 0.00 42 1017.3
20260506162543 71 257 6.1 9.6 0.00 0.00 0.00 42 1017.2
20260506162045 72 261 6.1 11.3 0.00 0.00 0.00 41 1017.2
20260506161542 72 285 7.8 11.3 0.00 0.00 0.00 41 1017.1
20260506161140 72 281 6.1 9.6 0.00 0.00 0.00 40 1017.1
20260506160540 72 305 7.0 10.4 0.00 0.00 0.00 40 1017.2
20260506160042 72 288 6.1 10.4 0.00 0.00 0.00 40 1017.2
20260506155539 72 259 4.3 9.6 0.00 0.00 0.00 40 1017.1
20260506155036 72 267 7.0 9.6 0.00 0.00 0.00 40 1017.1
20260506154538 72 253 6.1 10.4 0.00 0.00 0.00 40 1017.1
20260506154034 73 288 7.0 11.3 0.00 0.00 0.00 39 1017.3
20260506153531 73 279 6.1 11.3 0.00 0.00 0.00 39 1017.4
20260506153030 73 256 6.1 12.2 0.00 0.00 0.00 39 1017.3
20260506152529 73 281 8.7 12.2 0.00 0.00 0.00 39 1017.4
20260506152029 72 260 8.7 13.0 0.00 0.00 0.00 40 1017.4
20260506151528 72 271 9.6 13.9 0.00 0.00 0.00 39 1017.4
20260506151029 73 267 9.6 13.0 0.00 0.00 0.00 39 1017.3
20260506150527 73 293 7.0 13.0 0.00 0.00 0.00 41 1017.3
20260506150026 73 259 7.8 13.9 0.00 0.00 0.00 40 1017.3
20260506145530 73 303 10.4 13.9 0.00 0.00 0.00 40 1017.3
20260506145026 73 264 6.1 14.8 0.00 0.00 0.00 40 1017.3
20260506144524 73 252 8.7 14.8 0.00 0.00 0.00 41 1017.3
20260506144026 73 265 7.8 12.2 0.00 0.00 0.00 41 1017.3
20260506143523 73 279 9.6 12.2 0.00 0.00 0.00 41 1017.3
20260506143026 73 286 9.6 13.0 0.00 0.00 0.00 42 1017.3
20260506142521 74 222 7.8 13.0 0.00 0.00 0.00 41 1017.3
20260506142021 73 236 7.0 13.0 0.00 0.00 0.00 42 1017.3
20260506141521 73 249 8.7 13.9 0.00 0.00 0.00 42 1017.3
20260506141020 73 271 9.6 13.9 0.00 0.00 0.00 43 1017.3
20260506140520 74 240 7.8 13.0 0.00 0.00 0.00 42 1017.4
20260506140021 73 222 7.8 13.0 0.00 0.00 0.00 43 1017.3
20260506135518 73 240 8.7 13.0 0.00 0.00 0.00 43 1017.3
20260506135017 73 239 8.7 16.5 0.00 0.00 0.00 44 1017.3
20260506134517 73 247 8.7 16.5 0.00 0.00 0.00 44 1017.3
20260506134015 74 250 7.0 13.0 0.00 0.00 0.00 43 1017.3
20260506133518 74 245 8.7 13.9 0.00 0.00 0.00 44 1017.3
20260506133015 74 301 8.7 14.8 0.00 0.00 0.00 44 1017.2
20260506132513 74 263 9.6 14.8 0.00 0.00 0.00 44 1017.3
20260506132017 75 251 7.0 12.2 0.00 0.00 0.00 41 1017.2
20260506131514 74 253 8.7 12.2 0.00 0.00 0.00 39 1017.2
20260506131015 74 228 7.8 14.8 0.00 0.00 0.00 38 1017.2
20260506130513 74 259 10.4 14.8 0.00 0.00 0.00 39 1017.3
20260506130012 75 256 7.0 10.4 0.00 0.00 0.00 40 1017.3
20260506125509 75 267 6.1 10.4 0.00 0.00 0.00 41 1017.2
20260506125009 74 271 7.0 12.2 0.00 0.00 0.00 40 1017.4
20260506124508 74 213 7.8 12.2 0.00 0.00 0.00 39 1017.5
20260506124007 75 268 9.6 13.0 0.00 0.00 0.00 41 1017.5
20260506123508 74 239 7.8 13.9 0.00 0.00 0.00 42 1017.5
20260506123007 74 254 9.6 13.9 0.00 0.00 0.00 42 1017.6
20260506122506 74 270 7.8 13.0 0.00 0.00 0.00 42 1017.5
20260506122006 75 242 7.8 13.0 0.00 0.00 0.00 41 1017.4
20260506121506 74 256 6.1 13.0 0.00 0.00 0.00 41 1017.5
20260506121004 74 233 9.6 13.0 0.00 0.00 0.00 40 1017.5
20260506120506 74 262 8.7 13.9 0.00 0.00 0.00 39 1017.6
20260506120003 74 267 9.6 14.8 0.00 0.00 0.00 40 1017.6
20260506115504 74 249 10.4 14.8 0.00 0.00 0.00 40 1017.6
20260506115002 74 245 7.0 13.9 0.00 0.00 0.00 42 1017.6
20260506114501 74 238 10.4 13.9 0.00 0.00 0.00 41 1017.6
20260506114100 75 259 8.7 13.0 0.00 0.00 0.00 42 1017.6
20260506114001 75 295 8.7 13.0 0.00 0.00 0.00 41 1017.6
20260506113601 75 225 7.8 13.0 0.00 0.00 0.00 41 1017.7
20260506113100 75 215 7.0 13.9 0.00 0.00 0.00 42 1017.6
20260506112602 76 229 7.0 12.2 0.00 0.00 0.00 41 1017.6
20260506112102 75 244 8.7 11.3 0.00 0.00 0.00 40 1017.6
20260506111559 75 206 5.2 11.3 0.00 0.00 0.00 41 1017.6
20260506111059 76 240 6.1 13.0 0.00 0.00 0.00 41 1017.6
20260506110559 76 236 9.6 13.0 0.00 0.00 0.00 41 1017.7
20260506110059 76 226 7.0 12.2 0.00 0.00 0.00 41 1017.5
20260506105558 76 247 8.7 12.2 0.00 0.00 0.00 41 1017.6
20260506105058 77 219 5.2 12.2 0.00 0.00 0.00 39 1017.5
20260506104628 76 250 4.3 12.2 0.00 0.00 0.00 40 1017.5
20260506104056 76 259 2.6 12.2 0.00 0.00 0.00 41 1017.6
20260506103555 76 246 7.0 12.2 0.00 0.00 0.00 41 1017.5
20260506103055 76 226 5.2 10.4 0.00 0.00 0.00 41 1017.6
20260506102554 76 195 6.1 10.4 0.00 0.00 0.00 41 1017.6
20260506102054 76 172 7.0 9.6 0.00 0.00 0.00 43 1017.6
20260506101553 76 230 7.8 10.4 0.00 0.00 0.00 44 1017.6
20260506101052 75 204 4.3 8.7 0.00 0.00 0.00 44 1017.6
20260506100552 75 198 5.2 10.4 0.00 0.00 0.00 43 1017.7
20260506100051 75 265 6.1 9.6 0.00 0.00 0.00 43 1017.7
20260506095554 76 202 2.6 9.6 0.00 0.00 0.00 43 1017.7
20260506095050 75 260 4.3 9.6 0.00 0.00 0.00 43 1017.8
20260506094548 75 240 5.2 7.8 0.00 0.00 0.00 44 1017.8
20260506094147 75 238 5.2 7.8 0.00 0.00 0.00 43 1017.8
20260506093547 75 254 5.2 8.7 0.00 0.00 0.00 44 1017.9
20260506093046 75 183 6.1 8.7 0.00 0.00 0.00 43 1018.0
20260506092545 75 202 5.2 8.7 0.00 0.00 0.00 43 1017.9
20260506092045 74 205 3.5 8.7 0.00 0.00 0.00 41 1018.0
20260506091544 75 230 6.1 8.7 0.00 0.00 0.00 41 1018.1
20260506091044 74 249 2.6 7.0 0.00 0.00 0.00 42 1018.0
20260506090540 74 191 2.6 7.0 0.00 0.00 0.00 41 1018.1
20260506090045 74 245 3.5 7.0 0.00 0.00 0.00 42 1018.0
20260506085538 74 181 2.6 6.1 0.00 0.00 0.00 43 1018.0
20260506085038 73 16 1.7 7.8 0.00 0.00 0.00 44 1017.9
20260506084537 74 229 4.3 7.8 0.00 0.00 0.00 43 1017.8
20260506084036 73 199 4.3 7.0 0.00 0.00 0.00 44 1017.9
20260506083534 73 207 4.3 7.8 0.00 0.00 0.00 44 1017.9
20260506083040 73 271 1.7 8.7 0.00 0.00 0.00 45 1018.0
20260506082533 73 219 5.2 8.7 0.00 0.00 0.00 45 1018.0
20260506082032 73 237 4.3 8.7 0.00 0.00 0.00 45 1018.0
20260506081531 73 226 5.2 8.7 0.00 0.00 0.00 45 1018.1
20260506081032 72 219 1.7 7.8 0.00 0.00 0.00 46 1018.1
20260506080529 72 274 2.6 6.1 0.00 0.00 0.00 47 1018.1
20260506073529 70 259 2.6 5.2 0.00 0.00 0.00 48 1017.7
20260506073023 70 279 1.7 5.2 0.00 0.00 0.00 47 1017.7
20260506072525 70 250 1.7 5.2 0.00 0.00 0.00 47 1017.7
20260506072022 70 194 2.6 5.2 0.00 0.00 0.00 47 1017.6
20260506071525 70 205 1.7 4.3 0.00 0.00 0.00 48 1017.5
20260506071020 69 161 1.7 4.3 0.00 0.00 0.00 49 1017.6
20260506070520 69 225 2.6 4.3 0.00 0.00 0.00 48 1017.6
20260506062512 67 161 0.0 1.7 0.00 0.00 0.00 53 1017.6
20260506062011 66 141 0.0 2.6 0.00 0.00 0.00 54 1017.6
20260506061510 67 140 0.0 2.6 0.00 0.00 0.00 53 1017.6
20260506061011 67 117 0.0 2.6 0.00 0.00 0.00 54 1017.6